Location: Wien
(48.2082°N, 16.3738°E)
Time: 01:44:25
(UTC+02:00)

DOVE 4 - Pass Details

Date: 28 March 2019
Orbit: 587 x 804 km, 97.7° (Epoch: 25 April)

Event Time Altitude Azimuth Distance (km) Brightness Sun altitude
Rises 03:02:08 0° 16° (NNE) 2,913 ? -25.4°
Reaches altitude 10° 03:04:23 10° 20° (NNE) 1,977 ? -25.1°
Maximum altitude 03:08:37 61° 101° (E) 679 ? -24.5°
Enters shadow 03:08:59 58° 128° (SE) 697 ? -24.5°
